Location: Northam
(31.6525°S, 116.6655°E)
Time: 19:57:32
(UTC+08:00)

AAUSAT CUBESAT 2 - Pass Details

Date: 30 July 2021
Orbit: 572 x 587 km, 97.5° (Epoch: 18 September)

Event Time Altitude Azimuth Distance (km) Brightness Sun altitude
Rises 04:59:47 0° 8° (N) 2,775 ? -26.3°
Reaches altitude 10° 05:01:54 10° 6° (N) 1,887 ? -25.8°
Enters shadow 05:03:30 23° 2° (N) 1,248 ? -25.5°
